QPF
0.03 0.03 0.03 0.02 0.02 0.02 0.01 0.01 0.01 0.01 0.02 0.02 0.02 0.01 0.01 0.01 0.01 0.01 0.01 0.01 0.01 0.01 0.01 0.02 0.01 0.01 0.01 0.00 0.00 0.00 0.00 0.00 0.00 0.00 0.00 0.00 0.00 0.00 0.00 0.00 0.00 0.00 0.00
0.05 0.05 0.03 0.02 0.02 0.02 0.01 0.01 0.01 0.01 0.02 0.03 0.03 0.02 0.01 0.01 0.01 0.01 0.01 0.01 0.01 0.01 0.01 0.01 0.01 0.01 0.01 0.01 0.01 0.00 0.00 0.00 0.00 0.00 0.00 0.00 0.00 0.00 0.00 0.00 0.00 0.00 0.00
0.06 0.07 0.07 0.04 0.03 0.02 0.01 0.00 0.00 0.01 0.01 0.02 0.02 0.02 0.02 0.01 0.01 0.01 0.01 0.01 0.01 0.00 0.00 0.00 0.01 0.01 0.01 0.01 0.01 0.00 0.00 0.00 0.00 0.00 0.00 0.00 0.00 0.00 0.00 0.00 0.00 0.00 0.00
0.05 0.07 0.08 0.07 0.05 0.03 0.02 0.01 0.01 0.00 0.01 0.01 0.02 0.02 0.02 0.02 0.01 0.02 0.02 0.01 0.01 0.01 0.00 0.00 0.00 0.00 0.01 0.00 0.00 0.00 0.00 0.00 0.00 0.00 0.00 0.00 0.00 0.01 0.00 0.00 0.00 0.00 0.00
0.02 0.04 0.06 0.07 0.07 0.04 0.02 0.02 0.01 0.01 0.00 0.01 0.02 0.02 0.02 0.02 0.02 0.02 0.03 0.02 0.02 0.01 0.01 0.00 0.00 0.01 0.00 0.00 0.00 0.00 0.00 0.00 0.00 0.00 0.00 0.00 0.00 0.01 0.01 0.01 0.00 0.00 0.00
0.01 0.01 0.03 0.05 0.07 0.05 0.03 0.02 0.02 0.01 0.01 0.01 0.01 0.02 0.02 0.02 0.03 0.03 0.02 0.02 0.01 0.01 0.01 0.00 0.00 0.00 0.00 0.01 0.01 0.00 0.00 0.00 0.00 0.00 0.00 0.00 0.00 0.00 0.00 0.00 0.00 0.00 0.00
0.01 0.01 0.02 0.03 0.05 0.06 0.04 0.03 0.02 0.01 0.01 0.01 0.01 0.01 0.01 0.02 0.03 0.03 0.02 0.02 0.02 0.01 0.01 0.01 0.00 0.00 0.00 0.00 0.01 0.01 0.01 0.01 0.01 0.00 0.00 0.00 0.00 0.00 0.00 0.00 0.00 0.00 0.00
0.01 0.01 0.01 0.03 0.03 0.05 0.06 0.05 0.03 0.01 0.01 0.01 0.01 0.01 0.01 0.01 0.02 0.02 0.02 0.03 0.02 0.02 0.01 0.01 0.00 0.00 0.00 0.00 0.00 0.00 0.00 0.01 0.01 0.01 0.01 0.01 0.00 0.00 0.00 0.00 0.00 0.00 0.00
0.01 0.02 0.02 0.03 0.04 0.04 0.04 0.06 0.06 0.03 0.01 0.01 0.01 0.02 0.02 0.02 0.02 0.02 0.02 0.03 0.03 0.03 0.02 0.01 0.01 0.00 0.00 0.00 0.00 0.00 0.00 0.00 0.00 0.00 0.00 0.00 0.00 0.00 0.00 0.00 0.00 0.00 0.00
0.02 0.02 0.02 0.03 0.03 0.03 0.03 0.03 0.05 0.04 0.03 0.02 0.02 0.02 0.02 0.02 0.02 0.02 0.02 0.02 0.03 0.03 0.03 0.02 0.01 0.01 0.01 0.01 0.00 0.00 0.00 0.00 0.00 0.00 0.00 0.00 0.00 0.00 0.00 0.00 0.00 0.00 0.00
0.01 0.02 0.05 0.04 0.03 0.03 0.03 0.04 0.04 0.04 0.04 0.03 0.02 0.03 0.02 0.02 0.02 0.02 0.02 0.02 0.02 0.02 0.02 0.02 0.01 0.01 0.01 0.01 0.00 0.00 0.01 0.01 0.01 0.01 0.01 0.01 0.00 0.00 0.00 0.00 0.00 0.00 0.00
0.01 0.01 0.03 0.05 0.04 0.03 0.04 0.05 0.04 0.04 0.04 0.04 0.03 0.03 0.02 0.02 0.02 0.01 0.02 0.02 0.02 0.02 0.02 0.02 0.02 0.02 0.02 0.01 0.01 0.01 0.01 0.02 0.01 0.01 0.01 0.01 0.01 0.00 0.00 0.00 0.00 0.00 0.00
0.01 0.01 0.01 0.01 0.01 0.03 0.04 0.06 0.06 0.04 0.03 0.03 0.03 0.03 0.03 0.02 0.02 0.02 0.01 0.02 0.02 0.02 0.03 0.03 0.03 0.03 0.02 0.01 0.01 0.01 0.01 0.01 0.02 0.01 0.01 0.00 0.00 0.00 0.00 0.00 0.00 0.00 0.00
0.01 0.01 0.01 0.01 0.01 0.02 0.03 0.03 0.04 0.04 0.03 0.02 0.02 0.02 0.03 0.03 0.02 0.02 0.02 0.02 0.03 0.03 0.03 0.03 0.03 0.03 0.02 0.01 0.01 0.01 0.01 0.01 0.01 0.01 0.01 0.01 0.01 0.01 0.01 0.01 0.00 0.00 0.00
0.01 0.01 0.01 0.01 0.01 0.01 0.01 0.02 0.02 0.03 0.03 0.03 0.03 0.03 0.03 0.03 0.03 0.03 0.02 0.02 0.02 0.03 0.03 0.03 0.02 0.02 0.02 0.01 0.01 0.01 0.01 0.01 0.01 0.02 0.02 0.02 0.01 0.01 0.01 0.01 0.00 0.00 0.00
0.01 0.01 0.01 0.01 0.01 0.01 0.01 0.01 0.02 0.02 0.03 0.03 0.03 0.03 0.04 0.04 0.04 0.05 0.04 0.02 0.03 0.04 0.04 0.03 0.03 0.03 0.03 0.02 0.02 0.02 0.02 0.02 0.02 0.02 0.01 0.01 0.02 0.01 0.01 0.01 0.01 0.00 0.00
0.01 0.01 0.01 0.01 0.01 0.01 0.02 0.01 0.02 0.02 0.02 0.03 0.04 0.05 0.05 0.07 0.06 0.05 0.06 0.05 0.04 0.04 0.04 0.04 0.03 0.03 0.04 0.03 0.02 0.01 0.02 0.02 0.02 0.01 0.01 0.01 0.01 0.01 0.01 0.01 0.01 0.01 0.01
0.01 0.01 0.01 0.01 0.01 0.01 0.01 0.01 0.01 0.02 0.02 0.03 0.04 0.05 0.05 0.06 0.07 0.06 0.05 0.05 0.03 0.02 0.02 0.02 0.02 0.01 0.01 0.02 0.01 0.01 0.01 0.01 0.01 0.01 0.01 0.01 0.01 0.01 0.01 0.01 0.01 0.01 0.01
0.02 0.01 0.01 0.01 0.01 0.01 0.01 0.01 0.01 0.01 0.01 0.02 0.02 0.03 0.04 0.06 0.07 0.07 0.05 0.03 0.03 0.02 0.01 0.01 0.01 0.01 0.01 0.01 0.01 0.01 0.01 0.01 0.01 0.01 0.01 0.01 0.01 0.01 0.01 0.01 0.01 0.02 0.01
0.02 0.01 0.01 0.01 0.01 0.01 0.01 0.01 0.01 0.01 0.01 0.01 0.02 0.02 0.03 0.03 0.05 0.06 0.05 0.03 0.03 0.03 0.02 0.01 0.01 0.01 0.01 0.01 0.01 0.01 0.01 0.01 0.01 0.01 0.01 0.01 0.01 0.01 0.01 0.01 0.01 0.01 0.01
0.02 0.02 0.02 0.01 0.01 0.01 0.01 0.01 0.01 0.01 0.02 0.02 0.03 0.04 0.04 0.03 0.03 0.04 0.03 0.02 0.02 0.02 0.02 0.02 0.01 0.01 0.01 0.01 0.01 0.01 0.01 0.01 0.02 0.02 0.02 0.02 0.02 0.02 0.02 0.02 0.02 0.01 0.01
0.02 0.02 0.02 0.02 0.01 0.01 0.01 0.01 0.02 0.02 0.03 0.03 0.03 0.05 0.05 0.04 0.04 0.03 0.03 0.03 0.02 0.01 0.01 0.01 0.01 0.01 0.01 0.01 0.01 0.01 0.02 0.02 0.02 0.02 0.03 0.03 0.03 0.03 0.03 0.02 0.02 0.02 0.02
0.03 0.03 0.02 0.02 0.02 0.02 0.02 0.02 0.03 0.03 0.03 0.03 0.04 0.05 0.05 0.04 0.04 0.03 0.03 0.04 0.03 0.02 0.02 0.01 0.01 0.01 0.01 0.01 0.02 0.02 0.02 0.02 0.03 0.03 0.02 0.02 0.02 0.03 0.03 0.03 0.03 0.02 0.02
0.03 0.02 0.02 0.03 0.03 0.03 0.03 0.03 0.03 0.03 0.03 0.04 0.05 0.06 0.05 0.03 0.03 0.03 0.03 0.04 0.04 0.03 0.03 0.02 0.02 0.01 0.01 0.01 0.02 0.02 0.02 0.02 0.03 0.03 0.03 0.02 0.02 0.02 0.02 0.03 0.03 0.02 0.02
0.03 0.02 0.02 0.03 0.03 0.03 0.03 0.03 0.04 0.04 0.04 0.05 0.06 0.07 0.06 0.04 0.03 0.02 0.02 0.03 0.04 0.03 0.02 0.02 0.01 0.01 0.01 0.01 0.02 0.02 0.02 0.03 0.03 0.03 0.04 0.04 0.03 0.03 0.02 0.02 0.02 0.02 0.02
0.04 0.04 0.04 0.04 0.04 0.05 0.04 0.04 0.05 0.05 0.05 0.06 0.06 0.08 0.06 0.04 0.03 0.03 0.02 0.02 0.03 0.03 0.03 0.02 0.02 0.01 0.01 0.01 0.01 0.02 0.02 0.02 0.03 0.03 0.04 0.04 0.05 0.05 0.04 0.04 0.03 0.03 0.02
MSLP
1017.83 1018.30 1018.80 1019.31 1019.79 1020.22 1020.58 1020.86 1021.08 1021.25 1021.38 1021.51 1021.63 1021.76 1021.91 1022.08 1022.27 1022.46 1022.65 1022.82 1022.98 1023.09 1023.17 1023.21 1023.21 1023.20 1023.20 1023.22 1023.28 1023.41 1023.59 1023.81 1024.04 1024.23 1024.35 1024.35 1024.20 1023.90 1023.45 1022.89 1022.25 1021.58 1020.94
1017.86 1018.37 1018.92 1019.46 1019.98 1020.45 1020.85 1021.18 1021.46 1021.68 1021.87 1022.04 1022.21 1022.40 1022.60 1022.82 1023.05 1023.29 1023.52 1023.74 1023.91 1024.04 1024.11 1024.13 1024.10 1024.05 1023.99 1023.96 1023.98 1024.06 1024.21 1024.42 1024.64 1024.84 1024.98 1024.99 1024.87 1024.58 1024.15 1023.59 1022.94 1022.26 1021.60
1017.92 1018.49 1019.07 1019.66 1020.21 1020.71 1021.14 1021.51 1021.82 1022.08 1022.31 1022.52 1022.73 1022.94 1023.17 1023.42 1023.68 1023.95 1024.21 1024.45 1024.65 1024.80 1024.88 1024.90 1024.86 1024.79 1024.70 1024.64 1024.62 1024.67 1024.78 1024.95 1025.15 1025.34 1025.48 1025.50 1025.40 1025.14 1024.74 1024.21 1023.59 1022.92 1022.25
1018.00 1018.62 1019.26 1019.88 1020.46 1020.99 1021.45 1021.85 1022.19 1022.48 1022.73 1022.96 1023.19 1023.42 1023.66 1023.91 1024.17 1024.45 1024.72 1024.97 1025.19 1025.36 1025.46 1025.50 1025.47 1025.41 1025.32 1025.24 1025.20 1025.21 1025.28 1025.41 1025.57 1025.73 1025.84 1025.87 1025.78 1025.55 1025.18 1024.70 1024.12 1023.49 1022.84
1018.08 1018.76 1019.45 1020.11 1020.72 1021.27 1021.76 1022.19 1022.56 1022.87 1023.15 1023.40 1023.63 1023.86 1024.09 1024.33 1024.58 1024.84 1025.10 1025.35 1025.57 1025.75 1025.88 1025.94 1025.95 1025.91 1025.84 1025.76 1025.70 1025.69 1025.72 1025.79 1025.90 1026.01 1026.09 1026.09 1026.00 1025.80 1025.47 1025.04 1024.52 1023.94 1023.34
1018.13 1018.88 1019.61 1020.30 1020.95 1021.53 1022.05 1022.51 1022.91 1023.26 1023.57 1023.84 1024.08 1024.30 1024.52 1024.73 1024.95 1025.17 1025.40 1025.63 1025.85 1026.03 1026.18 1026.28 1026.31 1026.31 1026.26 1026.20 1026.14 1026.10 1026.09 1026.11 1026.16 1026.21 1026.24 1026.21 1026.11 1025.92 1025.63 1025.24 1024.79 1024.27 1023.71
1018.14 1018.93 1019.69 1020.42 1021.10 1021.72 1022.28 1022.78 1023.23 1023.62 1023.97 1024.27 1024.53 1024.75 1024.95 1025.13 1025.31 1025.50 1025.69 1025.88 1026.07 1026.26 1026.41 1026.53 1026.60 1026.63 1026.61 1026.57 1026.51 1026.46 1026.41 1026.39 1026.37 1026.36 1026.33 1026.27 1026.15 1025.95 1025.69 1025.35 1024.94 1024.48 1023.97
1018.08 1018.89 1019.68 1020.44 1021.14 1021.80 1022.40 1022.95 1023.45 1023.91 1024.31 1024.65 1024.94 1025.17 1025.37 1025.53 1025.68 1025.82 1025.97 1026.12 1026.29 1026.46 1026.61 1026.74 1026.84 1026.90 1026.91 1026.89 1026.84 1026.78 1026.71 1026.64 1026.58 1026.51 1026.43 1026.32 1026.17 1025.97 1025.72 1025.40 1025.03 1024.60 1024.12
1017.96 1018.78 1019.57 1020.33 1021.05 1021.74 1022.38 1022.99 1023.55 1024.06 1024.52 1024.92 1025.25 1025.52 1025.72 1025.88 1026.01 1026.12 1026.23 1026.36 1026.49 1026.64 1026.79 1026.93 1027.05 1027.13 1027.18 1027.18 1027.15 1027.09 1027.00 1026.91 1026.81 1026.70 1026.57 1026.42 1026.24 1026.02 1025.76 1025.44 1025.08 1024.67 1024.20
1017.81 1018.60 1019.37 1020.13 1020.85 1021.55 1022.23 1022.87 1023.49 1024.06 1024.58 1025.04 1025.42 1025.72 1025.95 1026.12 1026.24 1026.35 1026.44 1026.55 1026.67 1026.81 1026.95 1027.10 1027.24 1027.34 1027.42 1027.45 1027.43 1027.38 1027.30 1027.20 1027.08 1026.94 1026.78 1026.59 1026.38 1026.13 1025.84 1025.51 1025.12 1024.69 1024.21
1017.64 1018.39 1019.13 1019.85 1020.57 1021.27 1021.95 1022.62 1023.27 1023.89 1024.45 1024.95 1025.38 1025.72 1025.98 1026.18 1026.33 1026.44 1026.54 1026.65 1026.77 1026.92 1027.08 1027.24 1027.39 1027.53 1027.63 1027.69 1027.71 1027.68 1027.61 1027.51 1027.38 1027.23 1027.04 1026.83 1026.58 1026.29 1025.96 1025.59 1025.17 1024.69 1024.17
1017.49 1018.18 1018.87 1019.55 1020.24 1020.92 1021.59 1022.27 1022.92 1023.55 1024.14 1024.67 1025.13 1025.50 1025.80 1026.04 1026.22 1026.36 1026.50 1026.63 1026.78 1026.95 1027.13 1027.32 1027.51 1027.68 1027.82 1027.91 1027.96 1027.96 1027.92 1027.83 1027.71 1027.54 1027.34 1027.10 1026.81 1026.48 1026.10 1025.67 1025.19 1024.66 1024.08
1017.35 1017.98 1018.62 1019.26 1019.90 1020.55 1021.20 1021.85 1022.49 1023.11 1023.69 1024.22 1024.69 1025.09 1025.42 1025.69 1025.91 1026.10 1026.28 1026.47 1026.67 1026.88 1027.11 1027.34 1027.57 1027.78 1027.96 1028.09 1028.18 1028.21 1028.20 1028.13 1028.01 1027.85 1027.63 1027.36 1027.04 1026.66 1026.23 1025.73 1025.19 1024.60 1023.95
1017.20 1017.79 1018.38 1018.98 1019.58 1020.19 1020.80 1021.41 1022.02 1022.60 1023.16 1023.67 1024.13 1024.53 1024.88 1025.18 1025.45 1025.70 1025.94 1026.18 1026.44 1026.71 1027.00 1027.28 1027.56 1027.81 1028.03 1028.21 1028.33 1028.40 1028.41 1028.37 1028.26 1028.09 1027.87 1027.57 1027.22 1026.79 1026.31 1025.76 1025.16 1024.50 1023.81
1017.00 1017.55 1018.11 1018.69 1019.26 1019.84 1020.41 1020.99 1021.55 1022.09 1022.60 1023.08 1023.51 1023.91 1024.26 1024.59 1024.90 1025.19 1025.50 1025.81 1026.13 1026.47 1026.81 1027.15 1027.47 1027.77 1028.03 1028.24 1028.40 1028.50 1028.53 1028.50 1028.41 1028.25 1028.01 1027.70 1027.32 1026.86 1026.34 1025.75 1025.10 1024.41 1023.68
1016.68 1017.22 1017.78 1018.35 1018.91 1019.48 1020.03 1020.57 1021.10 1021.60 1022.07 1022.51 1022.91 1023.29 1023.65 1023.99 1024.33 1024.67 1025.02 1025.38 1025.76 1026.15 1026.54 1026.93 1027.29 1027.62 1027.92 1028.16 1028.34 1028.47 1028.53 1028.52 1028.44 1028.28 1028.04 1027.73 1027.33 1026.86 1026.31 1025.70 1025.04 1024.34 1023.60
1016.21 1016.75 1017.32 1017.90 1018.48 1019.06 1019.61 1020.15 1020.65 1021.13 1021.57 1021.98 1022.36 1022.73 1023.08 1023.43 1023.79 1024.16 1024.54 1024.95 1025.36 1025.79 1026.21 1026.62 1027.01 1027.37 1027.68 1027.95 1028.15 1028.30 1028.38 1028.39 1028.33 1028.19 1027.97 1027.66 1027.27 1026.80 1026.26 1025.65 1025.00 1024.31 1023.60
1015.56 1016.12 1016.71 1017.32 1017.93 1018.53 1019.11 1019.65 1020.16 1020.64 1021.07 1021.47 1021.85 1022.21 1022.57 1022.92 1023.29 1023.68 1024.08 1024.50 1024.94 1025.37 1025.81 1026.23 1026.63 1026.99 1027.31 1027.59 1027.82 1027.99 1028.09 1028.13 1028.10 1027.98 1027.79 1027.51 1027.15 1026.71 1026.19 1025.62 1025.00 1024.35 1023.69
1014.76 1015.32 1015.93 1016.57 1017.22 1017.85 1018.46 1019.04 1019.57 1020.07 1020.52 1020.93 1021.32 1021.69 1022.06 1022.43 1022.80 1023.20 1023.60 1024.03 1024.46 1024.89 1025.31 1025.72 1026.11 1026.47 1026.80 1027.09 1027.33 1027.53 1027.67 1027.74 1027.75 1027.68 1027.53 1027.30 1026.99 1026.59 1026.13 1025.61 1025.05 1024.45 1023.85
1013.87 1014.42 1015.03 1015.68 1016.35 1017.01 1017.65 1018.26 1018.83 1019.36 1019.84 1020.28 1020.70 1021.10 1021.48 1021.86 1022.25 1022.65 1023.05 1023.47 1023.88 1024.29 1024.70 1025.09 1025.47 1025.82 1026.15 1026.45 1026.71 1026.94 1027.12 1027.25 1027.31 1027.30 1027.22 1027.05 1026.79 1026.46 1026.07 1025.61 1025.11 1024.58 1024.04
1012.97 1013.48 1014.06 1014.69 1015.35 1016.02 1016.68 1017.31 1017.91 1018.46 1018.98 1019.46 1019.91 1020.34 1020.75 1021.16 1021.56 1021.96 1022.37 1022.77 1023.17 1023.56 1023.94 1024.32 1024.68 1025.03 1025.37 1025.69 1025.99 1026.26 1026.49 1026.68 1026.81 1026.87 1026.86 1026.76 1026.58 1026.32 1025.99 1025.60 1025.17 1024.70 1024.22
1012.13 1012.57 1013.09 1013.67 1014.29 1014.93 1015.57 1016.19 1016.80 1017.37 1017.91 1018.42 1018.90 1019.37 1019.81 1020.25 1020.67 1021.09 1021.49 1021.89 1022.28 1022.66 1023.04 1023.41 1023.77 1024.13 1024.48 1024.84 1025.18 1025.50 1025.80 1026.06 1026.26 1026.40 1026.46 1026.44 1026.33 1026.14 1025.88 1025.55 1025.18 1024.77 1024.34
1011.40 1011.75 1012.17 1012.66 1013.20 1013.78 1014.36 1014.95 1015.53 1016.09 1016.63 1017.16 1017.67 1018.16 1018.63 1019.09 1019.54 1019.98 1020.41 1020.82 1021.22 1021.61 1021.99 1022.37 1022.75 1023.14 1023.53 1023.93 1024.33 1024.72 1025.09 1025.42 1025.70 1025.91 1026.04 1026.09 1026.05 1025.92 1025.71 1025.44 1025.12 1024.75 1024.37
1010.78 1011.01 1011.33 1011.71 1012.15 1012.63 1013.13 1013.65 1014.17 1014.69 1015.21 1015.73 1016.24 1016.74 1017.24 1017.73 1018.21 1018.67 1019.13 1019.57 1020.00 1020.42 1020.83 1021.25 1021.67 1022.10 1022.55 1023.01 1023.47 1023.93 1024.37 1024.77 1025.12 1025.40 1025.59 1025.70 1025.71 1025.63 1025.48 1025.25 1024.97 1024.65 1024.30
1010.20 1010.34 1010.54 1010.81 1011.14 1011.50 1011.90 1012.33 1012.77 1013.23 1013.70 1014.19 1014.68 1015.18 1015.69 1016.21 1016.71 1017.22 1017.71 1018.19 1018.67 1019.13 1019.60 1020.07 1020.55 1021.05 1021.56 1022.09 1022.63 1023.15 1023.66 1024.13 1024.54 1024.87 1025.12 1025.27 1025.33 1025.29 1025.17 1024.98 1024.74 1024.46 1024.16
1009.59 1009.64 1009.76 1009.93 1010.14 1010.40 1010.70 1011.02 1011.38 1011.76 1012.17 1012.61 1013.07 1013.56 1014.08 1014.60 1015.14 1015.67 1016.21 1016.74 1017.27 1017.80 1018.34 1018.88 1019.43 1020.00 1020.59 1021.19 1021.79 1022.39 1022.96 1023.48 1023.94 1024.32 1024.61 1024.80 1024.89 1024.88 1024.80 1024.65 1024.45 1024.22 1023.97
Thickness
5699 5697 5696 5694 5693 5692 5690 5688 5687 5686 5685 5684 5683 5681 5680 5679 5678 5677 5675 5674 5672 5670 5669 5667 5666 5665 5663 5661 5659 5657 5654 5651 5645 5643 5644 5644 5643 5643 5642 5641 5640 5639 5638
5696 5694 5693 5691 5690 5688 5687 5686 5685 5684 5683 5682 5680 5679 5678 5676 5675 5674 5673 5671 5669 5667 5666 5664 5663 5662 5660 5658 5656 5654 5652 5650 5646 5641 5640 5639 5639 5638 5637 5636 5636 5635 5634
5693 5691 5689 5687 5686 5685 5684 5683 5682 5681 5680 5679 5678 5676 5675 5674 5672 5671 5670 5668 5667 5665 5664 5662 5661 5659 5657 5655 5653 5651 5649 5648 5644 5640 5636 5635 5634 5634 5632 5631 5631 5630 5629
5690 5687 5685 5684 5684 5683 5681 5680 5679 5678 5676 5675 5674 5673 5672 5671 5669 5668 5667 5665 5664 5662 5661 5660 5659 5657 5655 5653 5651 5649 5646 5643 5640 5637 5633 5631 5630 5629 5627 5625 5624 5624 5623
5686 5684 5682 5682 5681 5679 5678 5676 5675 5674 5673 5672 5670 5669 5668 5668 5667 5665 5663 5662 5660 5658 5658 5657 5657 5656 5655 5653 5650 5646 5644 5640 5636 5632 5629 5627 5625 5623 5622 5621 5620 5618 5618
5682 5681 5680 5678 5677 5675 5674 5673 5671 5670 5669 5668 5666 5665 5665 5665 5664 5663 5661 5659 5657 5656 5654 5654 5653 5653 5652 5651 5650 5647 5644 5639 5634 5630 5626 5624 5623 5622 5620 5618 5615 5612 5611
5678 5677 5675 5674 5672 5671 5670 5668 5666 5665 5664 5663 5662 5661 5661 5661 5661 5660 5659 5656 5655 5653 5652 5650 5650 5650 5648 5646 5645 5643 5641 5639 5637 5632 5627 5624 5622 5621 5618 5614 5612 5609 5607
5673 5671 5670 5669 5667 5666 5664 5662 5661 5661 5660 5659 5658 5658 5657 5657 5657 5657 5656 5653 5651 5650 5649 5648 5646 5645 5645 5643 5640 5637 5635 5634 5633 5631 5628 5625 5624 5621 5617 5614 5610 5606 5604
5667 5666 5666 5665 5663 5660 5659 5658 5657 5656 5655 5654 5654 5653 5652 5653 5654 5653 5651 5648 5646 5645 5645 5644 5643 5642 5642 5640 5636 5633 5631 5630 5630 5628 5626 5623 5620 5618 5614 5609 5604 5600 5597
5663 5663 5662 5660 5658 5656 5655 5654 5653 5651 5651 5650 5649 5649 5649 5649 5649 5649 5647 5644 5641 5640 5640 5640 5640 5639 5638 5636 5632 5629 5626 5626 5624 5622 5620 5617 5615 5612 5609 5606 5602 5596 5592
5660 5658 5656 5654 5653 5652 5651 5649 5647 5645 5644 5644 5644 5644 5644 5644 5645 5644 5643 5640 5638 5636 5635 5635 5635 5635 5634 5632 5629 5627 5626 5623 5620 5617 5614 5611 5608 5606 5604 5601 5599 5595 5590
5653 5651 5650 5648 5647 5647 5644 5642 5641 5639 5637 5636 5637 5637 5637 5639 5639 5639 5639 5637 5636 5633 5632 5632 5631 5631 5629 5627 5625 5624 5622 5619 5614 5611 5607 5604 5602 5600 5599 5597 5594 5592 5589
5645 5644 5643 5642 5641 5640 5637 5636 5634 5632 5631 5630 5630 5630 5631 5633 5633 5634 5633 5633 5631 5629 5629 5628 5627 5626 5624 5622 5620 5618 5615 5612 5608 5605 5603 5600 5598 5596 5594 5591 5588 5585 5582
5637 5637 5636 5635 5634 5633 5631 5630 5628 5627 5625 5625 5625 5625 5626 5626 5626 5626 5626 5626 5625 5624 5623 5622 5620 5619 5617 5615 5614 5611 5609 5607 5604 5601 5599 5596 5593 5590 5586 5584 5580 5577 5573
5630 5629 5629 5628 5627 5625 5625 5625 5625 5625 5624 5623 5623 5622 5621 5622 5624 5623 5621 5620 5619 5618 5616 5613 5610 5609 5608 5607 5605 5604 5602 5600 5598 5596 5593 5590 5587 5583 5580 5577 5574 5570 5566
5621 5621 5621 5620 5619 5618 5616 5616 5617 5618 5619 5619 5619 5618 5619 5620 5619 5617 5616 5615 5614 5612 5608 5606 5604 5603 5602 5601 5599 5597 5595 5594 5592 5589 5587 5584 5581 5578 5575 5571 5567 5564 5561
5614 5614 5613 5612 5612 5610 5609 5608 5607 5609 5610 5611 5611 5611 5612 5612 5612 5611 5609 5608 5606 5604 5601 5600 5599 5598 5597 5595 5593 5591 5590 5589 5586 5583 5580 5577 5574 5571 5568 5565 5561 5558 5555
5606 5606 5605 5604 5603 5603 5602 5601 5601 5601 5600 5601 5603 5603 5604 5604 5604 5603 5601 5598 5596 5595 5595 5595 5594 5593 5591 5589 5587 5585 5584 5581 5579 5576 5573 5571 5568 5565 5562 5559 5556 5553 5550
5597 5596 5596 5596 5595 5594 5594 5593 5592 5592 5593 5593 5593 5594 5595 5595 5595 5594 5593 5591 5591 5589 5589 5588 5587 5587 5585 5583 5581 5579 5577 5575 5572 5569 5567 5564 5561 5558 5556 5553 5550 5547 5543
5588 5589 5588 5587 5586 5585 5585 5584 5584 5583 5584 5584 5584 5585 5584 5583 5583 5584 5584 5584 5584 5583 5582 5581 5580 5579 5577 5576 5573 5571 5568 5566 5564 5562 5560 5557 5555 5552 5549 5546 5543 5540 5536
5578 5579 5579 5578 5578 5577 5577 5576 5576 5576 5575 5576 5576 5577 5577 5576 5577 5577 5577 5576 5577 5576 5575 5573 5572 5571 5569 5568 5565 5563 5561 5560 5558 5556 5553 5551 5548 5545 5543 5540 5537 5533 5530
5568 5569 5569 5569 5569 5569 5569 5569 5568 5568 5567 5567 5567 5567 5567 5567 5568 5569 5569 5569 5569 5568 5567 5566 5564 5563 5562 5560 5558 5556 5554 5553 5551 5549 5547 5544 5541 5538 5535 5533 5530 5527 5523
5559 5559 5559 5560 5560 5560 5560 5560 5559 5559 5558 5558 5559 5558 5558 5558 5559 5560 5560 5560 5560 5559 5558 5557 5556 5555 5554 5552 5551 5549 5548 5546 5545 5542 5540 5537 5534 5531 5529 5526 5523 5520 5516
5550 5550 5550 5551 5551 5551 5551 5551 5551 5551 5551 5551 5551 5551 5551 5551 5551 5552 5551 5551 5550 5549 5548 5547 5546 5545 5544 5543 5542 5540 5539 5538 5536 5534 5532 5530 5527 5524 5521 5518 5516 5513 5510
5541 5541 5542 5542 5542 5542 5542 5542 5542 5543 5543 5543 5543 5543 5542 5542 5542 5542 5541 5540 5539 5539 5538 5537 5536 5535 5535 5534 5532 5531 5530 5529 5527 5525 5523 5521 5519 5517 5514 5511 5508 5505 5501
5531 5532 5533 5533 5533 5533 5533 5533 5533 5533 5534 5534 5534 5534 5534 5533 5533 5532 5531 5530 5530 5529 5528 5527 5527 5526 5525 5524 5523 5522 5521 5519 5518 5516 5514 5512 5511 5508 5505 5502 5499 5496 5493